Notices

What's New in latest Release from April 7th, 2021:

- Updated Glossary, including Speed of Maximum Gust, and Total Hourly Precipitation

- Updated national and regional climate services offices contacts and prices information

- Addition of station inventory lists for 1981-2010, 1971-2000, and 1961-1990 Normals.

If you haven't already, please take our survey and provide feedback about our website: https://eccc.sondage-survey.ca/f/LanguageSelection.aspx?s=442ca660-fcf1-47c0-95a9-59707d6fd709

Hourly Data Report for January 28, 2021

EDMUNDSTON
NEW BRUNSWICK
Current Station Operator: ECCC - MSC

47°25'00.000" N
68°19'28.040" W
154.20 m
8101303
71590
ERM

Download Data

Hourly Data (January 2021)
Hourly Data Report for January 28, 2021
TIME
LST
Temp Definition
°C
Dew Point Definition
°C
Rel Hum Definition
%
Precip. Amount Definition
mm

Wind Dir Definition
10's deg

Wind Spd Definition
km/h
Visibility Definition
km
Stn Press Definition
kPa
Hmdx Definition


Wind Chill Definition


Weather Definition


00:00 -3.5 -4.9 90 0.0 28 3   99.70   -5 LegendNANA
01:00 -5.7 -6.5 94 0.0 30 1   99.70   -6 LegendNANA
02:00 -8.4 -9.0 95 0.0 33 2   99.69   -9 LegendNANA
03:00 -7.7 -8.8 92 0.0 31 2   99.71   -9 LegendNANA
04:00 -6.5 -7.4 93 0.0   0   99.68     LegendNANA
05:00 -6.4 -7.4 93 0.0 26 5   99.63   -9 LegendNANA
06:00 -10.9 -12.6 87 0.0 31 3   99.57   -13 LegendNANA
07:00 -11.4 -12.9 89 0.2 35 1   99.56   -12 LegendNANA
08:00 -9.7 -10.9 91 0.0 28 2   99.55   -11 LegendNANA
09:00 -7.9 -9.0 92 0.0 31 2   99.56   -9 LegendNANA
10:00 -6.3 -7.4 92 0.0 0 1   99.53   -7 LegendNANA
11:00 -4.2 -6.1 87 0.0 25 4   99.52   -6 LegendNANA
12:00 -2.7 -5.5 81 0.0 0 1   99.45   -3 LegendNANA
13:00 -2.8 -6.6 75 0.0 27 6   99.40   -5 LegendNANA
14:00 -2.9 -6.0 79 0.0 30 6   99.33   -5 LegendNANA
15:00 -3.2 -6.4 78 0.0 27 9   99.28   -7 LegendNANA
16:00 -3.4 -6.2 81 0.0 29 6   99.26   -6 LegendNANA
17:00 -3.9 -6.3 83 0.0 28 6   99.26   -7 LegendNANA
18:00 -4.4 -6.3 87 0.0 30 7   99.27   -8 LegendNANA
19:00 -5.3 -7.5 84 0.2 29 6   99.28   -8 LegendNANA
20:00 -6.1 -8.5 83 0.0 32 8   99.27   -10 LegendNANA
21:00 -7.3 -10.2 79 0.0 32 11   99.27   -12 LegendNANA
22:00 -7.9 -10.9 79 0.0 31 12   99.28   -13 LegendNANA
23:00 -8.8 -11.0 84 0.2 29 8   99.25   -13 LegendNANA

Notes on Data Quality.

Legend

  • E = Estimated
  • M = Missing
  • NA = Not Available*
  • [empty] = Indicates an unobserved value
Date modified: